Tracking 18945 objects as of 19-Jan-2018
HD Live streaming from Space Station
objects crossing your sky now

FENGYUN 1C DEB

Track FENGYUN 1C DEB now!
10-day predictions


NORAD ID: 37081
Int'l Code: 1999-025EFR
Perigee: 740.1 km
Apogee: 1,287.6 km
Inclination: 98.8 °
Period: 105.3 minutes
Semi major axis: 7384 km
RCS: 0.0002 m2 (small)
Launch date: May 10, 1999
Source: People's Republic of China (PRC)
Launch site: Taiyaun Space Center, China (TSC)

Note: This is SATELLITE DEBRIS
aabbcc
Your satellite tracking list
Your tracking list is empty




NASA's NSSDC Master Catalog

Two Line Element Set (TLE):
1 37081U 99025EFR 18013.79850006 -.00000587 +00000-0 -39914-3 0  9993
2 37081 098.7655 353.0450 0370701 215.6993 141.8848 13.68014906461399
Source of the keplerian elements: AFSPC